Wind_Speed
24 24 23 19 18 15 13 11 9 6 5 4 2 2 3 6 12 13 14 11 8 7 7 7 7 8 7 6 6 8 9 10 11 13 15 15 15 14 12 12 11 11 11
26 25 24 20 17 16 13 11 8 6 4 3 3 3 7 12 15 16 13 12 11 8 7 6 9 8 6 6 6 8 9 10 11 13 14 15 15 13 12 10 8 7 9
25 25 23 20 17 15 14 11 9 8 7 8 9 9 12 16 15 13 12 11 11 10 9 8 9 9 7 7 7 8 10 11 12 12 13 14 16 15 13 9 8 9 11
25 26 23 20 17 15 13 12 12 10 7 9 11 13 16 16 15 10 10 10 11 12 13 12 11 10 9 8 8 9 11 11 11 13 13 13 14 11 11 14 13 11 12
25 25 22 20 17 15 14 14 11 8 7 10 13 14 15 14 14 10 9 9 11 13 14 13 12 11 10 10 10 11 11 11 11 11 12 12 14 11 8 10 11 9 9
26 24 22 20 18 16 14 13 9 5 6 10 13 15 15 13 12 9 7 8 9 12 13 12 12 12 11 10 10 11 12 11 11 11 10 11 10 6 5 6 4 3 3
25 23 21 19 18 16 13 11 7 6 5 8 14 14 16 13 11 8 8 8 9 10 11 11 10 11 10 9 9 9 9 10 10 11 9 6 4 4 6 5 6 6 7
23 22 19 19 17 16 13 9 7 5 6 7 6 14 13 12 12 10 9 9 9 9 8 8 8 7 7 7 6 7 7 7 8 8 9 7 7 8 7 8 8 8 8
21 21 17 17 15 14 13 10 7 4 7 7 8 5 7 11 11 10 8 7 6 6 6 5 5 4 3 2 3 3 4 4 6 6 7 7 8 6 8 9 11 11 9
21 19 20 18 15 15 13 9 6 5 7 8 8 7 6 6 5 5 5 5 5 4 4 3 1 1 2 3 4 5 5 5 6 6 7 8 9 10 11 12 11 12 11
21 20 18 18 16 14 13 10 8 7 7 8 9 7 6 6 6 7 7 7 5 4 4 4 3 2 2 4 3 4 4 4 5 5 6 7 9 10 11 11 12 12 12
22 21 18 17 15 15 14 12 10 8 8 7 7 6 6 5 6 6 6 5 4 4 5 5 3 3 4 5 5 6 6 6 7 8 8 8 9 11 11 12 12 12 12
20 19 17 17 16 16 14 13 11 10 9 7 6 5 5 6 6 6 6 5 5 5 5 5 5 5 5 6 8 8 9 9 9 9 10 11 11 12 13 12 13 13 13
17 15 14 16 17 16 14 10 11 11 9 7 7 6 6 6 6 6 6 7 7 7 6 6 6 7 8 8 9 10 11 11 12 12 11 12 13 13 14 14 13 13 13
17 14 13 13 15 16 13 11 9 10 9 8 8 8 7 7 7 7 7 8 8 8 7 6 7 7 8 9 10 11 11 13 14 14 14 14 14 14 14 16 16 14 14
15 14 12 10 10 12 11 10 8 9 8 8 7 7 7 8 8 7 7 8 9 9 9 9 9 9 9 10 9 10 11 12 13 14 15 15 15 14 14 16 17 16 16
15 14 13 10 10 10 10 9 8 7 8 7 6 6 6 7 7 8 9 9 8 9 10 11 11 12 13 12 12 12 13 13 14 15 16 17 17 16 15 15 16 18 18
18 17 15 14 13 12 11 10 10 10 10 8 8 8 8 8 8 10 11 10 10 11 12 13 13 15 16 16 16 15 16 17 17 18 19 20 19 19 18 17 16 17 19
17 17 17 17 16 15 13 13 14 15 15 13 13 12 11 12 13 14 15 14 14 14 15 16 17 18 19 19 20 21 20 21 21 21 22 23 23 23 22 21 19 18 19
15 15 15 16 15 14 15 16 16 18 19 17 16 15 15 16 16 18 19 18 20 21 21 22 22 22 23 24 24 25 25 25 24 25 25 26 26 25 24 24 23 22 21
17 18 17 17 17 17 16 17 18 19 18 19 19 18 18 19 20 21 22 23 23 24 24 24 24 25 26 24 27 28 28 28 28 28 26 23 20 20 21 23 24 24 23
18 19 20 21 20 20 20 20 21 21 21 20 21 22 23 23 23 25 26 26 27 28 28 27 27 28 28 26 26 27 25 22 23 18 12 15 16 17 17 17 19 21 24
19 20 24 24 23 22 21 22 23 24 25 24 24 24 25 26 27 28 29 29 29 29 29 28 29 30 30 27 24 24 16 15 17 18 17 17 19 19 16 16 17 18 18
20 20 21 22 22 21 20 20 21 22 23 24 24 25 25 26 25 25 25 25 26 27 28 28 27 27 28 28 25 25 25 23 15 15 14 16 20 18 18 18 18 19 19
21 19 18 18 18 18 18 18 19 20 21 22 23 23 24 25 26 27 27 28 29 31 31 31 29 28 28 27 25 24 22 19 21 20 17 13 15 15 18 18 18 18 16
23 21 19 18 17 17 17 17 18 19 19 19 19 19 19 20 20 20 20 20 20 20 20 20 21 23 24 24 25 23 22 21 18 18 18 18 19 17 18 19 18 17 15
Wind_Direction
169 165 168 169 169 171 176 177 181 183 189 191 172 101 66 100 116 111 109 91 79 84 99 128 126 120 108 89 65 44 40 44 54 65 66 73 82 84 76 71 70 59 37
162 164 168 168 165 165 167 172 172 176 174 176 181 117 110 121 114 111 99 81 68 70 93 108 118 123 112 89 59 50 52 61 70 71 71 74 79 77 69 66 68 53 40
165 161 165 166 163 163 162 163 159 151 133 118 119 116 117 123 122 109 93 77 66 66 80 107 115 118 109 91 74 64 70 76 74 72 74 76 78 72 54 54 64 61 48
166 162 164 164 161 162 159 154 147 148 132 122 112 111 120 118 117 109 96 77 66 71 78 103 113 112 105 94 82 79 83 76 75 71 79 78 78 70 55 54 73 67 60
167 163 163 161 160 162 163 162 161 164 140 121 119 119 122 123 121 115 105 81 74 80 86 98 109 109 104 96 88 83 82 78 75 74 77 80 70 69 55 62 74 70 59
166 164 164 163 162 167 166 158 158 147 116 129 129 125 129 126 119 128 116 97 87 91 93 100 107 108 105 99 91 91 86 78 70 65 72 81 82 77 59 43 38 31 357
164 164 164 163 172 168 171 165 151 104 95 147 137 118 131 133 130 142 137 121 106 104 104 106 111 113 112 104 92 89 83 70 59 56 60 67 50 5 7 5 355 332 317
165 163 169 173 178 171 174 173 147 111 120 129 146 130 134 142 151 141 135 137 126 121 123 122 122 122 121 112 99 89 80 71 58 51 45 41 36 32 24 13 3 0 349
170 166 176 180 185 180 180 173 156 142 136 139 150 154 136 159 160 165 155 142 133 134 144 142 134 133 130 116 108 91 67 58 44 37 35 27 21 36 21 13 9 8 5
173 172 179 182 191 189 189 186 178 167 158 155 166 177 175 166 156 157 159 159 152 143 148 142 111 32 344 347 347 349 6 16 14 11 11 6 359 11 9 8 8 9 10
176 177 185 188 194 199 201 198 196 185 182 174 171 184 198 199 195 190 188 186 181 177 184 187 192 224 291 307 311 308 314 325 339 344 346 348 344 345 355 1 360 360 3
188 190 195 200 202 203 202 206 205 206 193 183 182 187 202 211 211 210 215 215 212 214 210 218 237 263 279 292 299 301 299 300 310 321 325 329 330 329 340 347 349 352 354
195 199 202 208 203 204 207 211 215 214 204 196 200 209 220 226 226 226 230 233 237 236 234 240 252 265 279 288 293 297 300 303 301 306 314 319 321 320 323 331 337 342 348
188 193 201 206 207 207 210 217 220 220 219 219 229 238 244 244 241 242 241 241 244 245 248 258 269 270 272 277 284 291 295 297 297 298 301 309 310 310 311 317 323 329 334
194 193 196 206 213 213 215 221 218 220 223 232 241 247 253 255 251 252 250 245 247 248 255 271 277 279 274 274 281 289 292 295 294 296 299 304 302 300 303 307 310 316 319
210 205 202 205 205 209 213 220 222 224 222 230 242 248 252 254 255 258 252 252 250 256 262 268 277 282 282 287 292 297 298 300 299 297 298 299 300 297 296 299 300 305 308
225 218 213 209 212 212 212 216 223 224 230 236 246 248 252 254 254 260 261 258 259 262 264 270 276 280 284 288 293 292 294 294 293 294 295 292 293 296 294 294 295 297 299
228 230 229 223 222 223 228 232 235 238 242 244 250 254 255 260 262 266 267 267 266 266 269 272 275 278 282 286 289 291 290 289 289 289 288 289 289 289 290 290 290 289 290
225 226 230 232 230 230 232 238 241 242 245 248 253 258 263 265 267 270 271 273 271 271 273 276 277 279 284 287 287 286 285 286 287 287 287 287 288 285 284 286 285 284 281
225 222 222 228 229 229 232 236 238 238 242 247 253 262 266 267 268 268 270 272 271 270 272 274 278 281 283 286 287 285 286 286 286 288 291 288 285 285 283 283 283 282 280
235 238 236 235 233 234 237 241 245 248 251 250 261 265 267 268 268 267 269 271 272 271 275 277 277 278 281 284 286 286 287 288 288 288 292 291 286 284 280 279 278 279 279
233 237 241 242 243 243 243 247 252 257 258 256 256 259 261 262 265 268 270 272 272 273 274 275 275 277 277 279 279 285 291 292 291 293 294 293 293 290 289 289 288 287 284
240 242 241 236 236 239 242 246 251 254 257 258 259 260 261 263 266 268 269 270 271 272 272 273 272 271 273 274 273 275 281 280 288 291 288 294 299 304 295 296 293 291 292
237 236 236 230 230 234 239 245 249 252 254 257 258 260 261 263 264 264 263 264 266 268 269 270 268 268 268 268 269 271 274 277 283 286 281 286 289 288 291 292 287 287 289
227 223 222 223 228 235 241 245 250 253 255 256 258 260 261 261 262 265 267 270 271 272 272 272 270 267 266 267 267 270 267 270 276 274 282 284 287 291 290 286 288 282 292
224 221 221 224 228 235 244 250 253 257 260 261 262 261 260 260 261 263 266 269 271 272 273 272 270 265 262 263 264 262 264 264 269 272 282 293 288 294 290 292 290 288 285
Height
1550 1553 1556 1559 1561 1563 1565 1567 1568 1570 1570 1571 1571 1571 1571 1572 1572 1573 1573 1574 1575 1575 1575 1575 1576 1577 1578 1579 1580 1580 1579 1579 1578 1578 1577 1577 1577 1577 1577 1577 1577 1577 1576
1548 1552 1556 1559 1561 1563 1565 1567 1568 1569 1570 1571 1571 1572 1572 1573 1574 1575 1575 1575 1576 1576 1576 1576 1577 1579 1580 1580 1581 1581 1580 1580 1580 1580 1580 1579 1579 1579 1579 1579 1579 1578 1578
1549 1552 1556 1559 1561 1563 1565 1567 1568 1569 1570 1571 1572 1572 1573 1574 1575 1576 1577 1577 1577 1577 1576 1577 1578 1580 1581 1582 1582 1582 1582 1582 1582 1582 1582 1582 1582 1582 1581 1581 1580 1580 1580
1549 1552 1556 1559 1562 1564 1566 1567 1568 1570 1571 1571 1572 1573 1574 1575 1577 1578 1579 1579 1579 1579 1578 1579 1580 1582 1582 1583 1584 1584 1584 1584 1584 1584 1584 1584 1584 1584 1583 1582 1582 1581 1581
1549 1552 1556 1560 1562 1565 1567 1568 1569 1571 1571 1572 1573 1574 1576 1577 1578 1579 1580 1581 1581 1580 1580 1581 1582 1583 1584 1585 1585 1585 1585 1586 1586 1585 1585 1585 1585 1585 1585 1585 1584 1583 1582
1549 1553 1557 1560 1563 1565 1568 1569 1571 1572 1573 1573 1574 1575 1577 1579 1580 1581 1582 1582 1582 1582 1582 1583 1584 1585 1585 1586 1586 1587 1587 1587 1587 1587 1587 1587 1587 1587 1586 1586 1585 1585 1583
1549 1554 1558 1561 1563 1565 1569 1570 1571 1573 1574 1575 1574 1576 1578 1580 1581 1581 1582 1583 1583 1583 1584 1585 1585 1586 1586 1587 1587 1587 1588 1588 1588 1588 1587 1588 1587 1587 1586 1586 1585 1584 1584
1551 1554 1559 1561 1564 1566 1568 1570 1572 1573 1575 1576 1577 1577 1578 1580 1581 1581 1583 1583 1584 1584 1585 1585 1586 1586 1587 1588 1588 1588 1589 1589 1589 1589 1588 1588 1588 1587 1587 1586 1585 1584 1582
1553 1556 1559 1561 1564 1567 1569 1571 1572 1574 1576 1577 1577 1579 1580 1580 1581 1582 1583 1585 1585 1585 1586 1587 1587 1587 1587 1588 1589 1589 1589 1589 1590 1590 1589 1589 1588 1587 1587 1586 1585 1584 1582
1554 1556 1559 1561 1564 1566 1569 1571 1573 1574 1575 1577 1578 1579 1580 1581 1582 1583 1584 1585 1586 1587 1588 1589 1589 1589 1589 1590 1590 1591 1591 1591 1590 1590 1589 1589 1588 1587 1586 1585 1584 1583 1581
1555 1557 1559 1561 1564 1567 1569 1571 1573 1574 1575 1576 1577 1579 1580 1581 1582 1583 1584 1585 1586 1586 1588 1589 1589 1589 1589 1589 1590 1590 1590 1590 1590 1589 1589 1588 1587 1586 1586 1585 1584 1583 1581
1555 1556 1559 1562 1563 1566 1568 1570 1572 1573 1575 1576 1578 1579 1580 1581 1582 1583 1584 1585 1586 1587 1588 1589 1589 1589 1589 1589 1589 1589 1589 1589 1589 1588 1588 1587 1587 1585 1585 1584 1583 1582 1581
1554 1556 1558 1561 1562 1565 1567 1569 1571 1573 1575 1576 1577 1578 1580 1581 1581 1582 1583 1584 1585 1586 1587 1588 1588 1588 1588 1588 1588 1588 1588 1588 1588 1587 1587 1586 1586 1585 1583 1583 1582 1581 1580
1553 1555 1557 1560 1561 1564 1566 1568 1570 1571 1574 1576 1577 1577 1579 1580 1581 1581 1582 1583 1584 1585 1586 1586 1586 1586 1586 1586 1586 1586 1586 1586 1586 1585 1585 1585 1584 1583 1582 1581 1581 1580 1579
1553 1554 1556 1558 1560 1563 1565 1566 1568 1570 1572 1574 1575 1576 1577 1578 1579 1580 1580 1581 1583 1584 1584 1584 1584 1584 1585 1584 1584 1584 1584 1583 1583 1582 1582 1582 1582 1581 1581 1579 1578 1578 1577
1553 1554 1555 1557 1559 1561 1563 1565 1567 1569 1571 1572 1573 1574 1575 1576 1577 1578 1579 1580 1581 1582 1582 1582 1582 1582 1582 1582 1582 1582 1582 1581 1581 1580 1580 1579 1579 1578 1578 1577 1576 1576 1575
1553 1554 1554 1556 1558 1559 1562 1564 1566 1568 1569 1571 1572 1573 1573 1574 1575 1576 1577 1578 1579 1580 1579 1579 1580 1579 1579 1579 1579 1579 1579 1579 1578 1577 1577 1576 1575 1575 1574 1574 1574 1573 1572
1550 1550 1553 1554 1556 1558 1560 1562 1564 1566 1567 1569 1570 1571 1571 1572 1573 1573 1574 1575 1577 1577 1577 1576 1577 1576 1576 1576 1576 1576 1575 1575 1574 1574 1573 1572 1572 1571 1570 1570 1570 1570 1570
1546 1548 1549 1551 1553 1555 1558 1560 1561 1563 1564 1566 1567 1568 1569 1569 1570 1570 1571 1572 1573 1573 1573 1573 1573 1573 1572 1572 1571 1571 1571 1570 1570 1569 1568 1567 1567 1566 1566 1566 1566 1566 1566
1543 1545 1546 1548 1550 1552 1554 1556 1557 1559 1561 1562 1563 1564 1565 1566 1566 1567 1567 1568 1569 1569 1569 1569 1568 1568 1567 1567 1565 1564 1564 1564 1564 1563 1563 1562 1561 1560 1560 1560 1560 1561 1561
1539 1542 1543 1546 1547 1549 1550 1551 1553 1554 1556 1558 1559 1560 1561 1561 1562 1562 1563 1563 1564 1563 1564 1563 1562 1562 1561 1561 1559 1558 1558 1557 1557 1557 1557 1556 1555 1554 1554 1554 1554 1555 1555
1536 1538 1539 1541 1543 1545 1546 1547 1549 1550 1551 1553 1554 1555 1555 1556 1556 1556 1557 1557 1557 1557 1557 1557 1557 1556 1555 1555 1554 1553 1551 1551 1550 1550 1551 1551 1551 1550 1549 1549 1549 1549 1549
1533 1534 1535 1536 1539 1540 1542 1543 1544 1545 1547 1548 1549 1549 1550 1550 1550 1551 1551 1551 1551 1550 1550 1551 1551 1550 1549 1549 1549 1549 1547 1545 1545 1546 1546 1546 1546 1546 1545 1545 1544 1544 1543
1528 1529 1530 1532 1534 1536 1537 1539 1540 1541 1542 1544 1544 1544 1544 1544 1544 1544 1544 1544 1544 1544 1543 1544 1544 1543 1542 1541 1542 1542 1542 1541 1540 1539 1541 1542 1542 1542 1541 1540 1539 1538 1538
1524 1525 1527 1529 1531 1533 1534 1535 1536 1537 1538 1538 1539 1539 1538 1538 1538 1538 1537 1537 1537 1537 1537 1536 1536 1536 1536 1536 1536 1536 1536 1536 1536 1535 1533 1536 1537 1537 1537 1536 1534 1533 1532
1520 1522 1524 1526 1527 1529 1530 1531 1532 1533 1533 1534 1534 1534 1533 1533 1532 1531 1531 1531 1531 1530 1530 1530 1529 1529 1529 1529 1529 1530 1530 1531 1530 1531 1529 1530 1530 1530 1531 1530 1530 1528 1527